EW6103 Weather Reports


time (UTC)temp
C
wind
direction
speed
KPH
gust
KPH
rain 1hr
cm
rain 24hr
cm
rain mn
cm
humidity
%
barometer
mb
20260508162008 16 180 1.6 6.4 0.00 0.00 0.00 62 1016.6
20260508161008 16 180 4.8 9.7 0.00 0.00 0.00 66 1016.7
20260508160013 15 180 4.8 9.7 0.00 0.00 0.00 66 1016.6
20260508155009 16 45 4.8 9.7 0.00 0.00 0.00 64 1016.6
20260508154008 16 180 4.8 6.4 0.00 0.00 0.00 63 1016.6
20260508153009 16 45 6.4 9.7 0.00 0.00 0.00 66 1016.8
20260508152009 15 270 6.4 11.3 0.00 0.00 0.00 70 1016.9
20260508150015 16 180 8.0 12.9 0.00 0.00 0.00 67 1016.8
20260508145006 16 270 6.4 12.9 0.00 0.00 0.00 71 1016.9
20260508144006 15 180 8.0 14.5 0.00 0.00 0.00 69 1016.9
20260508142010 15 180 8.0 12.9 0.00 0.00 0.00 72 1017.2
20260508141006 13 180 8.0 11.3 0.00 0.00 0.00 77 1017.3
20260508140012 13 180 6.4 9.7 0.00 0.00 0.00 79 1017.3
20260508135008 13 270 6.4 9.7 0.00 0.00 0.00 77 1017.4
20260508134008 14 225 4.8 8.0 0.00 0.00 0.00 75 1017.2
20260508133010 13 270 4.8 6.4 0.00 0.00 0.00 75 1017.3
20260508132008 13 180 3.2 6.4 0.00 0.00 0.00 77 1017.6
20260508130015 12 180 1.6 4.8 0.00 0.00 0.00 75 1017.4
20260508125008 13 90 1.6 4.8 0.00 0.00 0.00 76 1017.6
20260508124006 13 90 1.6 4.8 0.00 0.00 0.00 76 1017.6
20260508123012 13 90 1.6 6.4 0.00 0.00 0.00 77 1017.5
20260508122008 12 180 1.6 4.8 0.00 0.00 0.00 76 1017.6
20260508121009 12 180 3.2 6.4 0.00 0.00 0.00 77 1017.5
20260508120013 12 180 1.6 4.8 0.00 0.00 0.00 80 1017.5
20260508115008 12 270 1.6 3.2 0.00 0.00 0.00 78 1017.5
20260508113010 12 0 1.6 6.4 0.00 0.00 0.00 80 1017.5
20260508112011 12 180 0.0 4.8 0.00 0.00 0.00 81 1017.6
20260508110012 11 0 3.2 6.4 0.00 0.00 0.00 83 1017.6
20260508103010 11 0 3.2 6.4 0.00 0.00 0.00 85 1017.8
20260508102009 11 180 3.2 4.8 0.00 0.00 0.00 87 1017.7
20260508101006 10 0 1.6 4.8 0.00 0.00 0.00 87 1017.9
20260508100015 10 180 3.2 6.4 0.00 0.00 0.00 87 1017.9
20260508095009 10 0 3.2 6.4 0.00 0.00 0.00 89 1017.9
20260508094009 10 270 1.6 6.4 0.00 0.00 0.00 91 1017.9
20260508093010 10 180 6.4 11.3 0.00 0.00 0.00 91 1017.9
20260508092008 9 270 6.4 9.7 0.00 0.00 0.00 95 1017.2
20260508091008 9 270 6.4 9.7 0.00 0.00 0.00 95 1017.2
20260508090012 9 270 6.4 9.7 0.00 0.00 0.00 95 1017.2
20260508084009 9 270 6.4 9.7 0.00 0.00 0.00 95 1017.2
20260508083010 9 270 6.4 9.7 0.00 0.00 0.00 95 1017.2
20260508082010 9 270 6.4 9.7 0.00 0.00 0.00 95 1017.2
20260508081008 9 270 6.4 9.7 0.00 0.00 0.00 95 1017.2
20260508080010 9 270 6.4 9.7 0.00 0.00 0.00 95 1017.2
20260508075008 9 270 6.4 9.7 0.00 0.00 0.00 95 1017.2
20260508074008 9 270 6.4 9.7 0.00 0.00 0.00 95 1017.2
20260508073011 9 270 6.4 9.7 0.00 0.00 0.00 95 1017.2
20260508072009 9 270 6.4 9.7 0.00 0.00 0.00 95 1017.2
20260508071008 9 270 6.4 9.7 0.00 0.00 0.00 95 1017.2
20260508070012 9 270 6.4 9.7 0.00 0.00 0.00 95 1017.2
20260508065008 9 180 6.4 8.0 0.00 0.00 0.00 94 1017.0
20260508064008 9 270 6.4 9.7 0.00 0.00 0.00 93 1016.9
20260508063010 9 270 6.4 8.0 0.00 0.00 0.00 91 1016.9
20260508060013 9 180 6.4 8.0 0.00 0.00 0.00 89 1016.5
20260508055008 9 180 6.4 9.7 0.00 0.00 0.00 88 1016.3
20260508054013 10 180 6.4 8.0 0.00 0.00 0.00 89 1016.3
20260508053010 9 180 6.4 8.0 0.00 0.00 0.00 89 1016.0
20260508052009 10 180 6.4 8.0 0.00 0.00 0.00 88 1016.1
20260508050011 9 180 6.4 8.0 0.00 0.00 0.00 89 1016.1
20260508045007 9 270 4.8 6.4 0.00 0.00 0.00 89 1016.0
20260508044008 9 270 6.4 6.4 0.00 0.00 0.00 89 1016.1
20260508043010 9 270 6.4 8.0 0.00 0.00 0.00 89 1015.9
20260508042008 9 180 4.8 8.0 0.00 0.00 0.00 89 1015.8
20260508041008 9 180 6.4 6.4 0.00 0.00 0.00 89 1015.8
20260508040012 9 0 6.4 8.0 0.00 0.00 0.00 89 1015.9
20260508035007 9 180 6.4 8.0 0.00 0.00 0.00 89 1015.7
20260508034010 9 270 6.4 9.7 0.00 0.00 0.00 90 1015.6
20260508033010 9 180 6.4 8.0 0.00 0.00 0.00 90 1015.6
20260508032008 9 180 6.4 9.7 0.00 0.00 0.00 89 1015.6
20260508030011 9 270 6.4 6.4 0.00 0.00 0.00 90 1015.7
20260508025006 9 270 6.4 8.0 0.00 0.00 0.00 90 1015.5
20260508024008 9 270 8.0 12.9 0.00 0.00 0.00 90 1015.5
20260508023009 9 270 8.0 12.9 0.00 0.00 0.00 90 1015.6
20260508022007 10 180 6.4 9.7 0.00 0.00 0.00 91 1015.5
20260508021008 10 270 6.4 9.7 0.00 0.00 0.00 91 1015.4
20260508020014 9 180 8.0 12.9 0.00 0.00 0.00 91 1015.3
20260508014008 10 180 6.4 8.0 0.00 0.00 0.00 93 1015.2
20260508013008 10 180 8.0 11.3 0.00 0.00 0.00 92 1015.2
20260508012007 10 225 6.4 12.9 0.00 0.00 0.00 92 1015.1
20260508005008 10 270 6.4 8.0 0.00 0.00 0.00 92 1015.2
20260508003009 10 180 6.4 9.7 0.00 0.00 0.00 91 1015.1
20260508002009 10 180 3.2 6.4 0.00 0.00 0.00 90 1015.0
20260508001009 10 180 0.0 1.6 0.00 0.00 0.00 88 1015.0
20260508000012 10 0 0.0 3.2 0.00 0.00 0.00 88 1015.1
20260507235007 10 180 1.6 4.8 0.00 0.00 0.00 91 1015.0
20260507234008 10 180 3.2 4.8 0.00 0.00 0.00 91 1015.0
20260507232009 10 270 1.6 4.8 0.00 0.00 0.00 88 1015.0
20260507231009 10 270 1.6 4.8 0.00 0.00 0.00 89 1015.2
20260507230016 10 270 3.2 4.8 0.00 0.00 0.00 90 1015.3
20260507225009 10 270 3.2 4.8 0.00 0.00 0.00 91 1015.2
20260507224008 10 270 1.6 3.2 0.00 0.00 0.00 91 1015.1
20260507223009 10 270 0.0 1.6 0.00 0.00 0.00 89 1014.8
20260507222008 10 0 0.0 3.2 0.00 0.00 0.00 88 1014.9
20260507221006 11 0 3.2 4.8 0.00 0.00 0.00 86 1014.6
20260507220014 11 0 1.6 4.8 0.00 0.00 0.00 85 1014.7
20260507215009 11 0 1.6 3.2 0.00 0.00 0.00 84 1014.7
20260507211009 11 0 3.2 8.0 0.00 0.00 0.00 82 1014.4
20260507210012 11 0 3.2 8.0 0.00 0.00 0.00 82 1014.1
20260507205007 12 0 1.6 3.2 0.00 0.00 0.00 83 1014.1
20260507204009 12 180 3.2 6.4 0.00 0.00 0.00 84 1013.9
20260507203007 12 270 3.2 6.4 0.00 0.00 0.00 84 1013.8
20260507201009 12 270 3.2 6.4 0.00 0.00 0.00 85 1013.7
20260507200012 11 270 1.6 4.8 0.00 0.00 0.00 86 1013.6
20260507195006 11 45 0.0 1.6 0.00 0.00 0.00 85 1013.5
20260507194009 11 180 0.0 1.6 0.00 0.00 0.00 86 1013.5
20260507193010 11 270 0.0 3.2 0.00 0.00 0.00 86 1013.5
20260507191012 11 180 3.2 6.4 0.00 0.00 0.00 82 1013.1
20260507190013 12 270 3.2 6.4 0.00 0.00 0.00 80 1012.9
20260507185007 12 270 3.2 6.4 0.00 0.00 0.00 77 1012.7
20260507183008 13 0 3.2 9.7 0.00 0.00 0.00 74 1012.3
20260507182009 14 180 6.4 9.7 0.00 0.00 0.00 72 1012.1
20260507181009 14 180 6.4 14.5 0.00 0.00 0.00 70 1012.1
20260507180019 15 180 11.3 17.7 0.00 0.00 0.00 68 1012.0
20260507175009 16 180 6.4 9.7 0.00 0.00 0.00 64 1011.6
20260507174010 16 180 3.2 6.4 0.00 0.00 0.00 63 1011.3
20260507173014 16 270 8.0 12.9 0.00 0.00 0.00 61 1011.2
20260507172010 16 180 8.0 12.9 0.00 0.00 0.00 59 1011.1
20260507171009 17 180 6.4 11.3 0.00 0.00 0.00 57 1010.9
20260507170012 17 180 6.4 16.1 0.00 0.00 0.00 57 1010.8
20260507165011 17 180 8.0 12.9 0.00 0.00 0.00 57 1010.7
20260507164009 17 270 9.7 17.7 0.00 0.00 0.00 55 1010.6
20260507163012 17 180 14.5 17.7 0.00 0.03 0.00 53 1010.5